Flag for U.S.A. Weather past 2 weeks in Des Moines, Iowa, U.S.A.

Now
58 °F

Passing clouds.


Feels Like: 57 °F
Forecast: 33 / 63 °F
Wind: 6 mph from North

Location: Des Moines International Airport


UV Index: 5 (Moderate)

Visibility: 10 mi


Pressure: 30.32 "Hg

Humidity: 41%

Dew point: 34 °F

Location of Des MoinesLocation

Historic Weather in Des Moines

°F

Des Moines temperature yesterday

Maximum temperature yesterday: 55 °F (at 5:54 PM)
Minimum temperature yesterday: 35 °F (at 4:54 AM)
Average temperature yesterday: 43 °F

Past Weeks' High & Low Weather Summary

 TemperatureHumidityPressure
High85 °F (Apr 12, 3:54 PM)93% (Apr 3, 3:04 PM)30.37 "Hg (Apr 3, 3:04 PM)
Low26 °F (Apr 15, 3:54 AM)13% (Apr 11, 4:54 PM)29.49 "Hg (Apr 12, 8:54 PM)
Average49 °F56%29.93 "Hg
* Reported Apr 3 12:54 PM — Apr 18 12:54 PM, Des Moines, Weather by CustomWeather, © 2014

Note: Actual official high and low records may vary slightly from our data, if they occured in-between our weather recording intervals... More about our weather records

Advertising

Historic Weather Conditions — Data for Previous 24 hours

 ConditionsComfort  
Time TempWeatherWind HumidityBarometerVisibility
12:54 PM
Apr 18
58 °FPassing clouds.6 mph41%30.32 "Hg10 mi
11:54 AM55 °FPassing clouds.8 mph49%30.33 "Hg10 mi
10:54 AM49 °FPassing clouds.8 mph59%30.35 "Hg9 mi
9:54 AM45 °FPassing clouds.7 mph65%30.37 "Hg8 mi
8:54 AM40 °FPassing clouds.10 mph73%30.37 "Hg7 mi
7:54 AM37 °FSunny.7 mph76%30.37 "Hg6 mi
6:54 AM34 °FHaze.5 mph82%30.34 "Hg5 mi
5:54 AM35 °FPassing clouds.5 mph78%30.33 "Hg7 mi
4:54 AM35 °FClear.5 mph78%30.32 "Hg8 mi
3:54 AM36 °FPassing clouds.3 mph75%30.32 "Hg8 mi
2:54 AM38 °FPassing clouds.6 mph73%30.31 "Hg9 mi
1:54 AM39 °FClear.7 mph70%30.31 "Hg10 mi
12:54 AM41 °FClear.8 mph67%30.32 "Hg10 mi
11:54 PM
Apr 17
43 °FClear.8 mph62%30.31 "Hg10 mi
10:54 PM45 °FClear.8 mph58%30.31 "Hg10 mi
9:54 PM47 °FClear.8 mph52%30.31 "Hg10 mi
8:54 PM50 °FSunny.6 mph44%30.29 "Hg10 mi
7:54 PM52 °FSunny.No wind38%30.27 "Hg10 mi
6:54 PM55 °FPassing clouds.5 mph35%30.27 "Hg10 mi
5:54 PM55 °FPassing clouds.5 mph37%30.27 "Hg10 mi
4:54 PM54 °FPassing clouds.3 mph38%30.27 "Hg10 mi
3:54 PM52 °FPassing clouds.5 mph41%30.27 "Hg10 mi
2:54 PM51 °FBroken clouds.10 mph44%30.29 "Hg10 mi
Weather by CustomWeather, © 2014

See weather overview